Temp_Advection
nan nan nan nan nan nan nan nan nan nan nan nan nan nan nan nan nan nan nan nan nan nan nan nan nan nan nan nan nan nan nan nan nan nan nan nan nan nan nan nan nan nan nan nan nan nan nan nan nan nan nan nan nan nan
nan 0 0 0 0 0 0 -0 -0 -0 -0 -0 -0 -0 0 0 0 0 0 0 0 0 0 0 0 0 0 0 0 -0 -0 0 0 0 -0 0 0 0 -0 0 -0 0 -0 -0 0 0 -0 -0 0 0 -0 -0 -0 nan
nan 0 -0 -0 0 0 -0 -0 -0 -0 -0 -0 -0 0 -0 -0 0 0 -0 -0 0 0 0 -0 -0 0 0 0 0 -0 0 0 0 0 -0 0 0 -0 -0 0 0 -0 -0 0 -0 -0 -0 -0 -0 -0 -0 -0 -0 nan
nan -0 -0 -0 -0 -0 -0 -0 -0 -0 -0 -0 -0 -0 -0 -0 -0 -0 -0 -0 0 0 -0 -0 0 0 0 0 0 0 0 0 0 -0 -0 -0 0 0 -0 0 -0 0 -0 -0 -0 0 -0 -1 -0 -0 -0 -0 -0 nan
nan -0 -0 -0 -0 -0 -0 -0 -0 -0 -0 -0 -0 -0 -0 -0 -0 -0 -0 -0 0 -0 -0 0 0 0 0 0 0 0 0 0 -0 -0 -0 -0 0 0 -0 0 -0 0 -0 -0 -0 0 -0 -0 0 -0 -0 -0 -0 nan
nan -0 -0 -0 -0 -0 -0 -0 -0 -0 -0 -0 -0 -0 -0 -0 -0 -0 -0 -0 -0 -0 -0 -0 0 0 0 0 0 0 0 -0 -0 -0 -0 0 0 -0 -0 -0 -0 0 -0 -0 0 0 0 0 -0 -0 -0 -0 -0 nan
nan -0 -0 -0 -0 -0 -0 -0 -0 -0 -0 -0 -0 -0 -0 0 -0 -0 -0 -0 -0 0 -0 -0 0 -0 0 -0 -0 0 -0 -0 -0 -0 -0 0 0 0 -0 -1 -0 1 1 0 1 0 -0 0 -0 -0 -0 0 0 nan
nan -0 -0 -0 -0 -0 -0 -0 -0 -0 -0 -0 -0 -0 -0 -0 0 0 0 0 -0 -0 -0 -0 -0 -0 0 -0 0 0 -0 -0 -0 0 -0 0 -0 -0 -1 -2 0 1 0 -0 0 -0 -0 -0 -0 -0 -0 -0 0 nan
nan -0 -0 -0 -0 -0 -0 -0 -0 -0 -0 -0 -0 -0 -0 -0 -0 -0 -0 0 -0 0 -0 -0 -0 0 -0 -0 0 -0 -0 -0 -0 -0 -0 -0 -0 -0 -2 -1 1 1 0 -0 0 0 0 0 0 -0 -0 -0 -0 nan
nan 0 0 0 0 0 0 -0 -0 -0 -0 -0 -0 -0 -0 -0 -0 0 0 -0 0 0 0 0 -0 -0 0 -0 -0 0 -0 -0 -0 -0 -0 -0 -1 -2 -1 -0 0 1 0 0 -1 -1 -1 -0 -0 0 0 0 0 nan
nan -0 -0 -0 -0 -0 0 0 -0 -0 -0 -0 -0 -0 -0 -0 -0 0 0 -0 0 -0 0 0 -0 0 0 -0 0 0 -0 0 -0 0 -0 -0 -0 -0 0 0 1 1 1 0 -1 -0 0 0 0 0 0 0 0 nan
nan -0 -0 -0 -0 -0 -1 -0 -0 -0 -0 -0 -0 -0 -0 -0 -0 -0 0 0 -0 0 0 0 0 0 -0 0 0 -0 -0 0 0 0 -0 -1 -1 0 0 0 0 0 1 1 1 1 1 1 0 1 1 0 0 nan
nan -0 -0 -0 -0 -0 -0 -1 -0 -0 -0 -0 -0 -0 0 0 0 -0 -0 -0 0 0 0 -0 0 0 0 -0 -0 -0 -0 0 0 -0 -0 -1 -0 -0 -0 0 0 0 1 1 0 0 1 1 1 1 0 0 -0 nan
nan -0 -0 -0 -0 -0 -0 -0 -0 0 -0 -0 -0 -0 -0 -0 -0 -0 -0 -0 -0 -0 -0 -0 0 0 -0 -0 -0 -0 0 0 -0 -0 -1 -0 -1 -1 -0 -0 -0 -0 0 0 0 0 1 1 1 0 -0 -0 -0 nan
nan -0 -0 -0 -0 -0 -0 -0 -0 -0 -0 -0 -0 -0 -0 0 0 -0 -0 -0 -0 0 -0 -0 0 -0 -0 -0 -0 0 0 -0 -1 -0 0 -0 -1 -0 0 0 1 0 0 0 0 0 1 1 0 -1 -0 0 0 nan
nan -1 -1 -1 -1 -0 -0 -0 -0 -0 -0 -0 -0 -0 -0 -0 -0 -0 -0 -0 -0 -0 -0 -1 -0 -0 -0 -0 -0 -0 -0 -1 -0 0 -0 -0 -0 -1 0 1 1 1 1 1 0 0 0 0 -0 -0 0 0 -0 nan
nan -1 -1 -1 -1 -0 -0 -0 -0 -0 -0 -0 -0 0 -0 -0 -1 -1 -1 -0 0 -1 -1 -0 -0 -1 -0 0 -0 -0 -0 -0 1 1 -0 -0 -0 -1 -2 -0 0 1 1 1 1 0 0 -0 0 -0 -0 -0 -1 nan
nan -0 -1 -1 -1 -0 -0 0 0 -0 -0 -0 -0 -0 0 -0 -0 -0 -0 -0 -0 -1 -1 -0 -1 -0 -0 -2 -1 -0 1 1 0 1 0 0 -1 -1 -2 -3 -2 -0 0 1 1 1 0 -0 -0 -1 -1 0 0 nan
nan -0 -0 -1 -1 -0 -0 0 -0 -0 -0 -0 -0 -0 -0 -0 -0 -0 -0 -0 -0 -0 -1 -1 -0 -0 -0 0 -0 -0 -1 -1 -0 0 0 0 0 -0 -1 -1 -2 -2 -1 -0 -0 1 1 -0 -1 -0 -0 -0 -1 nan
nan -0 -0 -0 -0 -0 -0 0 0 -0 -0 -0 -0 -1 -0 -0 -0 0 -0 -0 -0 -0 -0 -0 -0 0 -0 -0 -1 -1 -1 -1 -2 -2 -2 -1 -0 -1 -1 -1 -1 -1 -1 -1 -1 -0 1 0 -0 -0 -0 -0 -0 nan
nan -0 -0 -0 -1 0 0 0 -0 -0 -0 -0 -0 -0 -0 -0 -0 -0 -0 -0 -0 -1 -0 0 -0 0 -0 -0 -1 -0 -1 -1 -1 -1 -2 -2 -1 -0 -0 -0 -1 -1 -0 -1 -1 -1 -0 0 0 0 0 -1 -2 nan
nan -0 -0 -0 0 0 0 -0 -0 -0 -0 -1 -0 -0 -0 -0 -0 0 0 0 -0 -0 -0 -0 -0 -0 -0 -1 -1 -1 -0 -0 -1 -2 -2 -1 -2 -2 -1 -0 0 -1 -1 -1 -0 0 -1 -1 -0 0 -0 -1 -0 nan
nan -0 0 0 0 -0 -0 -0 -0 -0 -0 -0 -0 -0 -0 0 0 0 -0 -0 -0 0 0 0 0 0 -0 -0 -0 -1 -1 -1 -1 -1 -2 -2 -2 -1 -1 -1 -0 -0 -0 -1 -0 -0 -1 -1 -2 -2 -0 1 -0 nan
nan 0 0 0 -0 -0 -0 -0 -0 -0 -0 -0 -0 -0 -0 0 0 -0 -1 -0 1 1 0 0 0 0 -0 0 -0 0 0 -0 -1 -1 -1 -2 -2 -2 -2 -2 -1 -1 -1 -1 -0 0 -0 -0 -1 -2 -3 -1 1 nan
nan 0 -0 -0 -0 -0 -0 -0 -0 -0 -0 -0 -0 0 -0 -0 -0 -0 -0 -1 0 1 0 0 0 0 1 1 0 -1 -1 -0 1 -0 -2 -1 -1 -2 -2 -2 -1 -1 -1 -1 -1 -0 1 1 -1 -2 -2 -3 -2 nan
nan 0 -0 -0 -0 -0 -0 -0 -0 -0 -0 -0 -0 -0 -0 0 0 -0 -1 -0 0 1 1 1 1 0 -0 -0 0 0 -0 -0 0 -0 -1 -1 -1 -2 -2 -2 -1 -1 -1 -1 -1 -0 0 -0 -0 -1 -1 -2 -3 nan
nan 0 -0 -0 -0 -0 -0 -0 -1 -0 0 -0 -0 -0 0 0 -1 -1 -1 0 1 1 1 1 0 -0 -0 -0 0 -0 -1 -0 1 0 -1 -1 -1 -1 -1 -1 -2 -2 -1 -1 -1 -1 -0 0 0 -0 -1 -1 -2 nan
nan -0 -0 -0 0 -0 -0 -0 0 -0 -0 -0 0 0 -0 -0 -1 -0 -0 -0 0 0 1 1 0 0 0 -0 -1 -0 -0 -0 -0 -1 -3 -4 -1 0 -1 -1 -0 -0 -1 -1 -1 -0 -0 -0 -0 -0 -0 -1 -1 nan
nan -0 -0 0 -0 -0 -0 -0 -0 -1 -1 -0 -0 -0 0 0 1 1 0 1 1 1 0 0 1 0 0 -0 -0 0 0 -0 -0 -1 -1 -2 -3 -2 -1 -1 -1 -0 -0 -1 -1 -0 -0 -0 -0 -0 -0 -0 -1 nan
nan -0 0 0 -0 -1 -1 -1 -1 -1 -0 0 1 0 -0 -1 -2 1 1 -1 -0 1 1 1 0 1 0 0 -0 0 1 1 -0 -1 -1 -3 -3 -1 -0 -1 -1 -1 -0 0 -0 -1 -0 -0 -0 -0 -0 -0 -0 nan
nan -0 -0 -1 -0 -0 -1 -1 0 0 0 -1 -0 1 -2 -2 -1 1 1 0 -0 -0 -0 -0 -0 0 0 -0 0 -1 -3 1 3 1 -0 -1 -1 -2 -2 -0 1 -0 -0 -0 -0 -0 0 -0 -0 -0 -0 -0 -0 nan
nan -0 0 -0 -0 -0 -0 -0 -0 -0 -0 -0 -0 -0 -0 -1 -0 1 1 0 0 -0 -0 0 -1 -1 0 -0 -1 -0 -1 -1 -1 0 1 -0 -1 -0 -0 -0 0 0 -0 -0 -0 -0 0 -0 0 -0 -1 -1 -0 nan
nan nan nan nan nan nan nan nan nan nan nan nan nan nan nan nan nan nan nan nan nan nan nan nan nan nan nan nan nan nan nan nan nan nan nan nan nan nan nan nan nan nan nan nan nan nan nan nan nan nan nan nan nan nan
Wind_Speed
13 13 12 12 12 13 13 13 13 13 14 13 10 7 2 3 2 2 3 2 1 1 6 11 8 6 6 6 3 5 5 5 4 4 2 2 3 1 3 2 3 4 3 4 3 4 4 15 10 6 1 2 3 4
10 10 9 9 9 9 9 10 10 11 12 13 12 12 10 5 1 3 3 4 4 2 3 11 12 11 9 6 6 8 2 3 6 4 3 2 4 3 4 3 5 4 4 2 5 2 4 23 6 14 6 5 4 4
7 7 6 6 6 6 7 8 8 8 8 9 8 8 8 8 7 5 3 2 2 2 2 6 7 12 11 10 11 6 7 6 4 6 3 2 5 3 3 4 4 6 10 5 3 5 15 16 17 12 12 10 7 5
6 5 5 5 5 6 6 7 7 7 7 7 7 7 8 8 7 5 3 2 2 2 2 4 10 9 11 10 10 12 5 7 6 5 6 4 4 6 3 5 8 7 10 8 10 12 7 18 20 18 17 14 11 8
6 6 6 6 6 6 6 7 7 8 8 7 8 9 11 10 10 9 6 2 1 1 4 3 7 15 12 10 9 13 9 7 7 5 6 5 4 4 7 6 9 15 9 7 5 11 11 9 23 20 18 17 14 11
7 7 7 8 8 9 9 9 10 10 10 10 9 9 9 9 9 8 2 2 4 4 2 2 3 4 14 11 9 10 9 7 7 5 7 7 5 4 4 4 10 23 17 16 3 11 13 6 21 22 20 17 14 12
6 6 7 7 8 9 10 10 11 11 11 11 12 12 12 11 9 5 3 6 8 5 2 4 2 2 9 8 7 6 9 7 8 9 7 12 8 8 4 6 8 20 24 20 12 16 15 15 20 23 21 18 16 12
7 8 8 9 10 10 10 11 11 12 12 12 13 13 13 13 11 6 7 7 6 4 3 3 1 3 11 8 7 9 7 7 7 8 4 8 5 8 7 22 14 13 20 23 24 23 9 18 16 24 21 20 18 17
5 6 7 9 11 12 13 13 14 14 14 13 12 13 12 4 3 5 10 11 7 4 3 2 3 2 6 4 5 3 5 4 5 6 7 6 6 9 18 17 18 23 24 21 27 25 17 22 26 25 25 23 22 19
11 11 11 11 10 11 11 12 13 14 13 12 10 3 2 2 9 14 5 2 1 4 5 4 3 2 4 6 5 3 5 3 3 5 5 5 8 29 30 27 21 20 28 20 30 29 29 26 32 30 29 26 23 20
12 13 14 15 15 16 16 12 10 10 8 6 5 2 8 11 9 2 2 1 1 2 4 4 5 4 6 5 4 5 2 3 3 3 4 4 5 13 9 13 23 26 25 31 35 31 32 28 29 31 30 27 24 22
15 15 15 16 16 17 17 15 9 10 8 7 7 11 7 2 2 2 1 1 3 2 2 3 3 6 3 5 5 4 3 2 5 3 3 4 6 7 8 9 11 16 27 29 31 29 27 31 27 29 28 28 26 24
16 16 16 16 16 15 15 15 8 7 6 4 3 2 2 2 0 1 2 2 2 2 2 3 3 3 4 5 4 4 4 5 0 3 4 5 12 18 17 16 12 10 17 26 28 30 27 27 28 28 29 27 25 24
19 18 18 19 18 16 13 9 5 4 2 2 3 3 2 2 4 2 2 4 4 5 7 6 6 4 4 4 4 4 4 3 3 4 6 3 16 20 20 18 15 13 13 17 27 28 30 28 30 29 29 27 29 25
21 20 18 18 17 15 11 6 2 3 0 1 2 3 4 4 3 4 6 7 6 7 6 6 7 5 4 4 4 3 4 6 5 5 1 10 24 22 20 18 18 14 12 15 19 28 30 30 28 31 29 30 29 30
20 18 17 18 19 16 11 7 4 1 2 2 4 3 4 6 3 3 5 6 9 8 8 7 5 4 7 5 7 8 4 6 3 2 10 17 20 28 26 23 24 23 19 16 16 23 26 28 31 28 28 31 33 34
19 15 19 18 17 16 13 8 3 1 2 3 5 5 9 10 11 12 11 11 12 13 9 7 5 9 5 5 6 4 5 9 15 14 17 20 25 31 34 32 29 26 23 19 15 17 22 23 24 25 28 30 34 36
16 15 17 17 17 15 9 1 0 1 5 8 7 4 6 9 12 15 15 15 16 16 16 13 14 15 12 17 16 13 19 18 19 21 21 25 25 27 26 31 29 25 23 20 17 15 18 21 24 28 28 27 27 31
14 13 14 15 16 11 3 0 1 3 7 9 12 12 12 14 14 17 18 18 18 17 17 13 9 11 13 29 28 30 33 36 32 32 34 32 28 27 29 28 28 24 23 22 18 17 16 19 22 22 24 25 28 28
11 10 12 13 14 6 3 1 3 4 5 5 10 12 12 14 17 19 21 21 19 18 12 8 17 29 32 36 39 42 42 42 43 42 42 40 40 42 40 35 32 25 26 23 23 17 13 14 17 20 22 25 26 29
10 10 12 15 11 4 5 3 4 5 7 7 10 11 14 15 17 20 20 18 22 26 26 36 41 43 44 45 42 42 45 44 45 43 44 42 40 41 40 37 35 34 34 30 23 17 13 14 13 14 19 26 33 35
11 10 13 11 3 3 5 5 5 6 6 9 12 10 10 13 18 20 20 24 27 32 34 37 38 40 42 42 42 43 44 45 47 47 47 44 40 36 38 35 32 32 37 34 29 29 29 29 26 21 21 27 27 29
10 10 6 4 4 3 4 3 4 4 4 4 4 5 7 14 12 13 8 16 28 33 33 36 39 41 43 43 41 42 43 42 43 44 42 42 42 40 38 38 36 36 37 39 38 36 35 35 32 34 29 26 28 28
6 3 3 4 7 3 3 4 5 5 5 6 5 9 14 13 12 15 13 28 32 34 31 32 32 32 33 32 36 34 29 25 32 35 35 38 40 40 40 39 37 38 38 37 38 34 31 32 33 35 38 36 32 30
3 6 5 7 6 5 5 4 5 6 5 8 10 12 9 7 5 11 19 30 22 24 25 25 26 29 33 35 36 35 36 37 34 35 37 35 35 36 40 42 39 38 37 35 37 37 36 37 37 37 38 41 41 38
7 8 10 9 7 7 8 4 6 7 6 4 5 6 9 10 6 7 13 24 23 27 31 32 35 36 37 36 33 36 42 39 34 35 45 42 37 36 37 40 38 38 35 35 36 39 40 40 39 42 39 38 39 40
7 9 12 12 7 7 6 10 11 8 4 5 4 4 3 5 7 7 29 37 46 49 49 48 44 41 42 44 46 44 43 42 40 40 47 47 46 43 39 36 38 40 37 35 34 37 40 41 37 37 38 35 32 33
14 9 12 16 15 15 8 5 4 5 6 8 5 5 5 6 14 43 50 59 57 55 55 54 48 44 43 44 47 47 46 45 42 41 44 45 42 40 37 37 36 36 33 35 36 36 38 41 41 38 37 37 34 33
11 12 14 12 15 10 11 11 10 11 17 16 15 16 33 39 45 53 57 55 53 50 49 47 46 39 38 39 41 43 44 40 35 39 40 42 44 45 33 33 31 32 30 27 27 29 38 41 40 38 36 35 39 37
16 19 11 10 8 10 13 17 20 23 21 24 31 44 46 47 50 49 42 47 37 33 34 38 40 36 37 37 42 44 39 36 36 37 40 43 43 39 36 36 36 31 23 23 26 26 25 27 32 36 37 37 37 36
9 20 15 17 12 20 30 33 30 31 32 34 37 39 44 48 51 48 27 22 20 23 35 45 37 34 36 36 36 40 46 35 32 31 31 32 33 36 31 29 28 30 25 20 20 21 22 24 27 30 33 36 37 38
15 19 13 7 15 22 20 19 21 20 22 24 30 36 34 31 30 28 16 19 32 40 42 36 36 44 42 35 36 32 33 34 31 29 29 30 31 29 29 32 34 32 29 24 20 18 18 20 22 21 25 28 30 33
15 11 12 12 9 7 9 7 8 13 16 19 25 34 26 17 12 13 14 20 32 51 42 31 38 43 41 36 34 27 27 25 26 28 27 28 29 29 29 31 31 33 34 31 28 26 23 22 23 25 26 30 26 25
Wind_Direction
91 89 86 83 78 73 67 60 56 54 53 51 57 61 130 193 208 214 197 206 94 118 193 195 192 166 173 202 209 147 177 205 204 238 254 236 256 184 256 225 198 224 216 217 228 246 256 155 161 219 97 184 232 257
86 84 82 77 71 62 54 49 48 45 45 48 53 55 57 65 180 227 230 239 240 192 194 209 214 212 209 207 198 183 255 182 196 231 237 271 244 233 267 281 199 235 225 289 230 269 137 180 184 201 202 235 240 259
91 84 76 64 51 45 39 35 32 36 39 39 39 41 42 45 50 68 81 130 169 188 197 201 221 224 219 216 202 204 218 214 211 210 261 278 260 225 255 245 245 225 215 239 263 235 216 202 217 217 218 227 227 238
66 60 50 41 33 27 21 16 13 14 11 7 4 6 10 8 1 354 323 286 237 247 233 204 218 211 212 209 214 210 218 221 203 198 235 250 258 206 261 278 256 249 169 226 244 247 219 220 215 212 214 216 222 227
46 37 26 18 13 9 5 2 359 358 357 354 349 343 342 345 346 342 338 341 249 263 314 285 245 223 210 209 217 217 234 201 198 203 225 243 266 246 248 280 239 190 196 194 225 204 196 209 202 200 202 207 212 212
27 19 12 6 1 357 352 349 346 344 343 342 340 339 337 337 337 339 324 36 21 358 310 277 254 211 200 199 199 206 199 207 226 234 250 248 235 238 269 255 242 206 207 205 225 187 190 190 188 194 201 204 207 212
10 8 1 355 352 351 349 345 342 340 338 334 331 330 327 325 327 322 305 299 317 319 306 293 241 185 186 192 195 199 220 224 231 251 241 249 222 206 254 252 246 208 206 203 199 168 192 186 188 193 199 204 208 212
351 344 340 339 337 336 333 330 330 333 335 334 330 324 318 314 312 303 297 297 305 301 279 288 275 190 190 207 225 214 220 220 229 235 228 228 189 222 252 241 243 219 202 200 198 197 207 193 190 194 197 200 205 211
326 308 307 308 310 315 318 318 320 320 319 322 329 323 312 348 357 325 309 291 277 250 299 280 294 11 168 202 204 208 223 240 215 234 229 212 216 228 239 257 236 213 199 205 199 201 200 196 198 198 199 204 208 212
10 4 359 350 330 317 303 305 308 313 325 331 333 340 340 357 321 317 317 24 174 199 214 221 238 224 186 201 201 246 212 246 250 217 177 230 251 254 254 252 248 224 212 200 189 203 205 207 202 201 203 205 209 212
4 359 354 349 348 347 347 342 336 338 345 20 4 303 299 310 306 258 305 8 316 251 220 241 224 226 201 208 214 221 254 242 258 151 237 243 262 253 268 261 245 234 221 214 216 217 210 209 202 202 204 206 208 210
355 354 350 345 346 348 349 350 1 8 5 342 305 296 303 342 317 335 308 290 246 308 245 270 260 216 214 194 221 197 251 232 251 134 254 260 260 303 303 295 276 240 229 222 218 216 213 210 209 208 208 208 208 210
350 351 346 343 343 348 347 354 5 23 5 344 333 302 331 321 349 208 272 207 259 244 270 278 273 251 243 213 214 210 237 238 308 232 243 254 304 324 325 313 296 278 232 225 223 218 216 214 211 208 209 210 210 212
346 350 348 345 351 352 350 357 15 41 25 17 344 311 262 213 245 231 317 340 348 324 321 296 282 254 246 235 234 246 223 214 243 239 239 332 349 336 332 335 318 291 256 238 225 220 215 213 210 212 212 211 213 212
342 345 347 340 349 358 355 350 42 48 338 271 235 238 233 282 306 316 312 311 312 306 304 293 260 237 230 259 220 269 237 245 235 241 251 336 340 338 335 331 330 314 285 264 238 222 217 214 213 215 217 213 217 218
344 344 344 346 348 359 350 332 313 300 259 264 242 263 260 283 293 351 4 360 2 338 307 259 267 245 232 227 194 218 241 227 277 272 322 328 337 350 348 334 330 323 307 284 258 228 221 218 216 216 217 217 217 221
346 344 340 347 348 348 348 354 345 290 253 257 254 256 262 280 281 289 295 296 309 313 298 290 252 231 305 235 215 222 247 281 289 298 316 323 325 331 330 333 329 321 315 301 276 237 227 226 219 215 216 219 222 225
342 339 334 344 349 350 341 281 201 275 262 256 260 282 258 268 279 285 289 292 292 287 279 265 274 269 264 265 260 267 268 279 288 300 311 312 321 329 326 332 333 321 312 307 288 260 239 227 223 224 223 221 224 226
336 330 330 338 350 352 329 194 252 270 252 274 269 273 268 272 275 280 285 284 280 276 275 269 249 244 245 251 267 276 278 281 294 298 299 298 305 316 322 321 321 331 324 313 296 282 254 242 234 231 229 225 226 228
333 324 323 330 345 343 315 281 226 260 265 276 275 271 267 273 283 283 279 279 280 276 254 238 248 256 269 277 283 289 290 293 295 292 289 292 296 300 300 299 302 306 307 310 307 288 268 257 251 244 237 233 232 232
329 322 320 323 329 259 256 249 243 244 278 261 277 281 276 277 269 273 276 285 272 254 258 255 263 268 271 276 279 281 283 284 283 283 287 292 292 289 289 289 289 283 286 292 285 276 284 293 294 285 264 250 245 247
317 325 326 332 276 262 266 240 249 283 264 263 282 263 272 270 275 276 283 268 264 263 268 274 276 279 280 280 282 283 284 286 285 284 284 284 281 283 284 283 282 276 272 271 276 276 273 278 285 288 282 281 270 254
298 309 297 251 245 244 260 234 251 251 263 268 273 270 263 288 284 295 259 262 279 288 289 286 284 287 284 285 288 289 286 284 285 281 278 278 278 274 274 275 271 267 268 269 267 272 274 281 280 284 288 296 280 270
270 254 235 236 215 255 247 233 229 251 243 249 246 280 290 283 278 274 274 284 289 296 292 294 295 289 287 289 292 292 290 296 303 304 298 289 284 280 277 277 274 270 265 265 266 261 262 265 270 278 279 277 285 283
252 236 209 224 215 220 218 227 231 233 240 248 281 281 264 265 250 279 282 282 303 305 299 299 296 285 282 286 285 285 291 293 290 289 295 293 294 288 277 273 274 270 268 264 261 259 260 266 270 278 279 273 269 274
236 221 204 204 209 205 202 222 217 216 257 270 254 261 282 281 262 257 276 297 309 305 301 296 294 291 282 273 271 279 286 288 288 289 286 287 284 297 292 273 267 270 270 263 259 258 258 260 274 275 272 268 266 261
233 234 217 214 212 202 236 248 257 268 245 240 247 265 252 259 243 249 295 307 307 307 304 300 293 285 280 279 280 280 280 283 283 283 289 293 285 287 284 285 283 279 277 270 259 254 257 258 263 265 268 267 262 255
216 229 206 205 214 222 241 245 229 224 230 230 229 220 232 250 279 293 298 299 302 304 304 301 299 293 285 281 282 282 281 284 291 293 295 291 285 284 282 283 287 291 289 269 258 257 255 259 262 260 260 263 259 255
217 218 208 221 219 229 226 215 221 226 231 240 260 264 272 278 286 289 294 301 304 303 302 305 308 307 297 288 282 280 281 285 288 288 287 285 288 288 289 281 285 292 280 274 272 270 261 259 262 265 265 265 260 258
221 208 216 204 201 216 224 221 236 244 256 269 276 281 284 286 292 300 301 303 309 314 316 319 327 318 303 299 296 296 291 285 276 269 271 275 286 300 291 285 284 303 289 282 278 268 264 264 264 261 259 258 255 251
198 193 225 234 244 245 247 258 260 265 273 273 280 271 275 289 304 309 308 310 315 323 324 327 330 331 329 318 305 299 304 311 303 296 292 293 297 298 293 288 295 300 292 295 273 267 272 275 274 269 263 259 256 255
203 212 218 228 254 261 264 266 264 256 264 268 273 280 285 290 288 294 265 324 346 345 334 327 327 333 338 340 337 326 312 312 314 311 306 303 300 296 288 285 287 287 292 294 292 285 298 294 281 288 289 279 267 261
212 211 217 238 250 251 242 236 264 273 265 268 273 281 283 270 273 283 294 325 344 349 337 329 335 335 339 336 333 333 335 325 313 308 302 298 292 292 293 288 281 282 287 286 277 282 286 299 289 285 288 295 278 265
Height
1570 1570 1570 1569 1569 1568 1568 1567 1566 1564 1562 1560 1558 1556 1556 1556 1556 1556 1556 1556 1557 1557 1557 1558 1558 1560 1561 1563 1562 1566 1569 1568 1568 1565 1563 1560 1560 1557 1561 1559 1563 1557 1556 1553 1550 1549 1543 1548 1553 1549 1546 1545 1546 1546
1573 1573 1572 1572 1572 1571 1570 1569 1568 1567 1565 1563 1561 1559 1558 1556 1555 1555 1556 1555 1555 1556 1556 1555 1556 1557 1559 1561 1562 1563 1563 1563 1564 1563 1563 1560 1558 1559 1553 1547 1555 1555 1551 1544 1546 1537 1542 1544 1543 1544 1545 1544 1544 1544
1574 1574 1574 1573 1573 1572 1571 1570 1569 1568 1566 1565 1563 1562 1561 1559 1557 1556 1554 1554 1554 1554 1555 1554 1554 1554 1556 1557 1559 1561 1562 1562 1562 1562 1561 1558 1557 1555 1547 1544 1545 1547 1548 1544 1547 1532 1537 1539 1540 1542 1542 1543 1542 1542
1576 1575 1575 1574 1574 1573 1572 1571 1570 1569 1567 1566 1564 1563 1561 1559 1558 1556 1555 1555 1555 1554 1553 1551 1550 1551 1552 1554 1556 1558 1559 1559 1560 1562 1561 1557 1553 1554 1543 1543 1541 1536 1543 1536 1531 1528 1532 1532 1533 1535 1538 1540 1540 1540
1577 1576 1576 1575 1574 1573 1572 1571 1570 1568 1567 1565 1564 1563 1561 1559 1557 1556 1555 1554 1554 1557 1554 1551 1548 1548 1549 1551 1553 1555 1557 1558 1559 1560 1559 1555 1551 1552 1544 1543 1527 1525 1523 1524 1516 1516 1519 1519 1526 1530 1533 1535 1536 1537
1578 1577 1577 1576 1575 1574 1573 1572 1570 1568 1567 1565 1563 1562 1560 1558 1557 1556 1554 1555 1554 1553 1553 1550 1548 1547 1549 1550 1552 1553 1555 1557 1557 1556 1553 1550 1551 1551 1540 1526 1508 1509 1511 1512 1512 1513 1517 1518 1521 1525 1529 1531 1533 1534
1577 1577 1576 1575 1574 1573 1572 1571 1570 1568 1566 1564 1563 1561 1560 1558 1557 1558 1558 1556 1554 1554 1553 1550 1546 1546 1549 1551 1552 1552 1552 1554 1554 1553 1549 1546 1546 1548 1538 1519 1499 1501 1504 1507 1510 1512 1515 1516 1517 1521 1524 1527 1530 1531
1578 1577 1576 1575 1574 1572 1571 1570 1568 1566 1564 1562 1561 1559 1558 1556 1556 1556 1555 1554 1554 1554 1554 1552 1546 1547 1548 1550 1551 1550 1550 1550 1548 1546 1543 1541 1542 1539 1521 1494 1496 1498 1500 1502 1504 1505 1507 1510 1514 1517 1520 1523 1525 1527
1577 1576 1576 1574 1572 1570 1569 1567 1565 1563 1562 1560 1559 1557 1555 1555 1554 1555 1554 1553 1553 1556 1553 1552 1546 1543 1548 1548 1548 1549 1549 1544 1542 1539 1536 1535 1526 1514 1490 1489 1489 1491 1490 1491 1499 1502 1505 1506 1509 1512 1515 1518 1521 1523
1577 1575 1573 1571 1569 1567 1566 1564 1562 1561 1559 1558 1557 1556 1555 1555 1554 1554 1549 1549 1550 1549 1549 1547 1546 1544 1547 1547 1545 1546 1544 1539 1534 1527 1529 1523 1501 1490 1484 1481 1484 1484 1485 1488 1492 1496 1498 1499 1501 1505 1508 1513 1516 1519
1577 1575 1573 1571 1569 1567 1564 1562 1560 1559 1558 1557 1556 1555 1554 1552 1551 1549 1549 1549 1550 1548 1546 1544 1543 1541 1542 1542 1542 1543 1538 1534 1528 1518 1522 1502 1486 1474 1473 1473 1474 1478 1478 1478 1479 1483 1488 1492 1496 1499 1503 1506 1510 1513
1578 1576 1573 1570 1568 1565 1563 1562 1560 1559 1558 1558 1557 1554 1552 1551 1551 1552 1549 1551 1550 1544 1545 1544 1543 1542 1540 1539 1540 1539 1535 1533 1522 1523 1519 1497 1474 1470 1471 1470 1469 1469 1471 1472 1475 1480 1483 1486 1490 1494 1498 1500 1503 1507
1577 1575 1572 1569 1567 1565 1562 1561 1559 1559 1558 1557 1556 1555 1555 1553 1552 1549 1548 1544 1545 1545 1545 1543 1542 1542 1539 1538 1536 1535 1530 1522 1523 1520 1503 1481 1473 1473 1471 1468 1465 1463 1464 1466 1469 1472 1477 1479 1483 1487 1490 1494 1498 1501
1575 1573 1570 1567 1565 1563 1561 1560 1559 1558 1557 1557 1558 1556 1554 1550 1549 1544 1546 1547 1549 1547 1547 1546 1545 1543 1539 1538 1532 1528 1517 1519 1514 1506 1490 1479 1479 1475 1471 1467 1463 1462 1460 1460 1462 1466 1468 1471 1474 1477 1482 1487 1490 1493
1574 1572 1570 1567 1565 1563 1561 1559 1559 1558 1558 1557 1558 1555 1550 1549 1550 1550 1550 1549 1549 1547 1546 1544 1542 1541 1536 1535 1528 1521 1519 1510 1495 1478 1479 1479 1477 1473 1470 1466 1463 1460 1459 1457 1457 1458 1461 1463 1467 1469 1473 1478 1482 1486
1572 1570 1569 1566 1563 1562 1560 1558 1558 1558 1558 1557 1555 1552 1549 1549 1548 1548 1549 1549 1548 1548 1546 1544 1538 1534 1528 1520 1515 1512 1501 1491 1478 1483 1483 1479 1475 1471 1467 1464 1462 1459 1456 1453 1452 1452 1454 1456 1458 1462 1467 1469 1473 1477
1570 1569 1566 1564 1562 1560 1559 1558 1558 1558 1558 1556 1552 1550 1552 1551 1550 1548 1548 1548 1548 1548 1546 1542 1536 1525 1514 1505 1498 1495 1488 1484 1482 1482 1480 1478 1475 1470 1467 1464 1459 1456 1453 1450 1447 1447 1448 1451 1454 1456 1458 1460 1464 1468
1569 1567 1565 1562 1560 1558 1557 1556 1557 1557 1556 1551 1550 1549 1549 1549 1548 1547 1546 1546 1546 1545 1543 1540 1533 1522 1513 1493 1484 1485 1484 1483 1482 1479 1476 1474 1471 1468 1466 1462 1457 1453 1450 1447 1445 1444 1444 1445 1446 1447 1450 1455 1457 1460
1567 1565 1564 1562 1560 1559 1556 1557 1557 1557 1553 1550 1548 1548 1548 1546 1543 1542 1541 1541 1541 1541 1540 1533 1521 1501 1494 1493 1489 1487 1484 1482 1476 1473 1470 1470 1467 1464 1460 1459 1457 1452 1449 1446 1443 1441 1441 1440 1440 1443 1444 1447 1448 1451
1565 1564 1562 1562 1561 1559 1557 1557 1557 1555 1551 1547 1545 1543 1542 1540 1538 1536 1534 1533 1534 1534 1529 1516 1502 1498 1496 1492 1489 1485 1482 1480 1476 1468 1462 1462 1460 1458 1456 1455 1452 1449 1448 1444 1441 1438 1436 1436 1436 1436 1438 1439 1440 1440
1564 1562 1560 1561 1560 1560 1557 1554 1553 1552 1548 1545 1541 1541 1536 1533 1530 1528 1526 1527 1524 1517 1507 1502 1495 1491 1489 1485 1483 1479 1476 1474 1467 1463 1457 1451 1451 1448 1447 1446 1445 1442 1442 1440 1438 1435 1432 1432 1433 1432 1430 1429 1429 1429
1562 1560 1558 1557 1558 1556 1555 1553 1552 1550 1547 1539 1537 1536 1531 1525 1522 1520 1519 1515 1508 1503 1500 1495 1490 1485 1479 1475 1473 1469 1465 1462 1456 1452 1448 1445 1441 1437 1434 1433 1432 1429 1428 1429 1428 1427 1425 1425 1425 1425 1423 1420 1420 1421
1561 1559 1558 1558 1556 1554 1552 1551 1551 1547 1542 1537 1534 1529 1524 1519 1515 1514 1510 1500 1495 1492 1488 1483 1479 1476 1470 1465 1462 1457 1454 1449 1444 1439 1434 1431 1427 1425 1422 1421 1420 1418 1415 1412 1414 1415 1413 1413 1413 1413 1414 1413 1412 1412
1558 1558 1555 1554 1554 1550 1550 1548 1546 1543 1538 1535 1529 1522 1519 1514 1510 1506 1497 1488 1481 1480 1476 1472 1467 1462 1460 1456 1452 1447 1443 1439 1434 1429 1424 1419 1414 1412 1411 1408 1406 1404 1402 1401 1399 1399 1400 1400 1402 1402 1402 1403 1403 1402
1560 1553 1552 1548 1548 1547 1545 1543 1538 1534 1531 1527 1523 1521 1513 1508 1502 1493 1486 1473 1470 1469 1466 1462 1458 1453 1448 1443 1440 1435 1432 1430 1425 1420 1414 1410 1405 1399 1395 1393 1392 1390 1391 1389 1388 1387 1387 1386 1387 1389 1389 1390 1391 1392
1553 1543 1541 1538 1537 1538 1536 1533 1531 1528 1525 1523 1517 1510 1505 1500 1496 1485 1472 1466 1462 1459 1455 1451 1446 1441 1435 1429 1423 1420 1415 1415 1414 1410 1401 1399 1396 1390 1383 1379 1376 1374 1376 1376 1375 1374 1374 1375 1374 1375 1376 1376 1377 1379
1540 1532 1528 1527 1527 1528 1527 1523 1521 1520 1519 1516 1509 1505 1501 1497 1481 1469 1463 1461 1455 1449 1444 1438 1432 1427 1421 1415 1412 1408 1402 1399 1398 1396 1388 1383 1379 1377 1373 1368 1364 1362 1362 1361 1361 1360 1360 1361 1361 1362 1363 1363 1364 1365
1523 1519 1517 1517 1518 1519 1519 1516 1514 1512 1508 1504 1501 1497 1490 1480 1464 1461 1456 1447 1443 1438 1430 1422 1418 1413 1406 1402 1397 1394 1390 1388 1386 1383 1376 1368 1363 1362 1359 1357 1354 1351 1348 1347 1347 1347 1347 1348 1348 1348 1350 1350 1351 1353
1509 1509 1511 1510 1513 1512 1507 1503 1500 1496 1493 1492 1486 1478 1470 1467 1461 1453 1444 1440 1433 1428 1420 1410 1403 1400 1394 1388 1383 1380 1377 1376 1376 1369 1363 1357 1350 1346 1351 1346 1343 1339 1336 1334 1333 1334 1334 1335 1336 1336 1337 1337 1339 1340
1498 1501 1502 1500 1500 1495 1489 1488 1484 1483 1484 1483 1478 1466 1459 1452 1446 1441 1439 1430 1425 1418 1412 1407 1398 1390 1383 1378 1370 1363 1365 1365 1363 1360 1352 1345 1340 1338 1338 1336 1333 1330 1326 1324 1322 1323 1323 1323 1324 1324 1324 1325 1325 1326
1486 1489 1490 1487 1481 1478 1477 1476 1477 1475 1473 1470 1467 1460 1449 1440 1432 1427 1427 1424 1420 1415 1407 1398 1390 1385 1378 1372 1366 1359 1347 1348 1348 1345 1342 1336 1333 1330 1327 1325 1325 1322 1320 1316 1314 1314 1314 1314 1314 1314 1313 1313 1313 1314
1474 1474 1477 1476 1471 1470 1471 1470 1467 1462 1459 1456 1451 1445 1440 1437 1430 1422 1420 1418 1413 1406 1399 1391 1384 1375 1370 1363 1358 1351 1345 1339 1336 1334 1331 1327 1323 1321 1320 1319 1317 1315 1314 1312 1310 1308 1307 1307 1306 1306 1305 1304 1303 1303
1466 1467 1469 1471 1469 1464 1462 1461 1457 1450 1447 1443 1439 1433 1430 1428 1422 1417 1413 1410 1406 1401 1391 1384 1379 1372 1365 1358 1353 1346 1341 1335 1330 1325 1321 1319 1316 1313 1312 1311 1309 1308 1307 1305 1305 1303 1302 1301 1299 1298 1298 1296 1295 1294